This is the latest recevied weather packets stored in our database for station/object MB7UIK. If no packets are shown the sender has not sent any weather packets the latest 1 day(s).
| Time | Temp. | Humidity | Pressure | Rain* | Wind** | Luminosity | Snow |
|---|---|---|---|---|---|---|---|
| 1777978065 | 14.44° C | 100% | 1011.7 hPa | 0 mm | 1.34 m/s, 55° | - | - |
| 1777978033 | 14.44° C | 100% | 1011.7 hPa | 0 mm | 1.34 m/s, 55° | - | - |
| 1777978004 | 14.44° C | 100% | 1011.7 hPa | 0 mm | 1.34 m/s, 25° | - | - |
| 1777977944 | 14.44° C | 100% | 1011.7 hPa | 0 mm | 1.79 m/s, 42° | - | - |
| 1777977885 | 14.44° C | 100% | 1011.7 hPa | 0 mm | 2.68 m/s, 49° | - | - |
| 1777977825 | 14.44° C | 100% | 1011.7 hPa | 0 mm | 3.13 m/s, 68° | - | - |
| 1777977765 | 15° C | 100% | 1011.7 hPa | 0 mm | 2.24 m/s, 342° | - | - |
| 1777977731 | 15° C | 100% | 1011.7 hPa | 0 mm | 2.24 m/s, 342° | - | - |
| 1777977705 | 15° C | 100% | 1011.7 hPa | 0 mm | 1.79 m/s, 68° | - | - |
| 1777977645 | 15° C | 100% | 1011.7 hPa | 0 mm | 0.89 m/s, 69° | - | - |
| 1777977585 | 15° C | 100% | 1011.7 hPa | 0 mm | 1.34 m/s, 348° | - | - |
| 1777977525 | 15° C | 100% | 1011.7 hPa | 0 mm | 1.34 m/s, 38° | - | - |
| 1777977465 | 15° C | 100% | 1011.7 hPa | 0 mm | 2.68 m/s, 24° | - | - |
| 1777977432 | 15° C | 100% | 1011.7 hPa | 0 mm | 2.68 m/s, 24° | - | - |
| 1777977406 | 15° C | 100% | 1011.7 hPa | 0 mm | 2.68 m/s, 25° | - | - |
| 1777977346 | 15° C | 100% | 1011.7 hPa | 0 mm | 1.34 m/s, 355° | - | - |
| 1777977286 | 15° C | 100% | 1011.7 hPa | 0 mm | 1.34 m/s, 73° | - | - |
| 1777977225 | 15° C | 100% | 1011.7 hPa | 0 mm | 1.34 m/s, 43° | - | - |
| 1777977164 | 15° C | 100% | 1011.7 hPa | 0 mm | 1.79 m/s, 46° | - | - |
| 1777977132 | 15° C | 100% | 1011.7 hPa | 0 mm | 1.79 m/s, 46° | - | - |
| 1777977104 | 15° C | 100% | 1011.7 hPa | 0 mm | 1.34 m/s, 46° | - | - |
| 1777977044 | 15° C | 100% | 1011.7 hPa | 0 mm | 1.34 m/s, 53° | - | - |
| 1777976984 | 15° C | 100% | 1011.7 hPa | 0 mm | 4.02 m/s, 39° | - | - |
| 1777976924 | 15° C | 100% | 1011.7 hPa | 0 mm | 1.34 m/s, 40° | - | - |
| 1777976866 | 15° C | 100% | 1011.7 hPa | 0 mm | 1.34 m/s, 12° | - | - |
* Rain latest hour (hover to see other rain measurements)
** Current wind speed in m/s (hover to see current wind gust speed)